Regional Weather Roundup
Issued by NWS

Home | Current Version | Previous Version | Graphics & Text | Print | Product List | Glossary On
Versions: 1 2 3 4 5 6 7 8 9 10 11 12 13 14 15 16 17 18 19 20 21 22 23 24 25 26 27 28
000
ASUS45 KTFX 211110
RWRMT
MONTANA REGIONAL WEATHER ROUNDUP
NATIONAL WEATHER SERVICE GREAT FALLS MT
400 AM MST TUE NOV 21 2017

NOTE: "FAIR" INDICATES FEW OR NO CLOUDS BELOW 12000 FEET WITH NO
SIGNIFICANT WEATHER AND/OR OBSTRUCTIONS TO VISIBILITY.

MTZ001>007-043-211200-
WEST OF THE DIVIDE

CITY           SKY/WX    TMP DP  RH WIND       PRES   REMARKS
KALISPELL      MOCLDY    33  33 100 W3        30.13R FOG
MISSOULA       FOG       34  34 100 CALM      30.17R VSB 1
BUTTE          FAIR      27  23  85 SE3       30.16R
MULLAN PASS    CLOUDY    28  25  88 S6        30.09S WCI  22
ANACONDA         N/A     32  21  64 SE6       30.16R WCI  26
DEER LODGE       N/A     32  28  86 SE5       30.18R
EUREKA           N/A     39  36  87 MISG      30.13R
HAMILTON         N/A     36  28  75 S6        30.18R WCI  31
LIBBY            N/A     36  36 100 CALM      30.14R VSB 1
PLAINS           N/A     33  30  89 CALM      30.16R VSB 0
RONAN            N/A     36  32  85 SE2       30.17R
$$

MTZ008-052>055-211200-
SOUTHWEST MONTANA

CITY           SKY/WX    TMP DP  RH WIND       PRES   REMARKS
BOZEMAN        FOG       28  27  96 CALM      30.17R VSB 3/4
DILLON         FAIR      29  27  92 E5        30.14R
W YELLOWSTONE  FOG       25  25 100 NE6       30.17R VSB 1/2 WCI  18
ENNIS          CLOUDY    28  28 100 NE5       30.20R
TWIN BRIDGES     N/A     30  23  75 CALM      30.12R
$$

MTZ009-010-012-014-046-048-049-054-211200-
EAST SLOPES AND CENTRAL MONTANA

CITY           SKY/WX    TMP DP  RH WIND       PRES   REMARKS
CUT BANK       CLOUDY    15  10  80 S3        30.17F
GREAT FALLS    CLOUDY    19  16  88 E5        30.21R
MALMSTROM AFB  FAIR      15  14  95 NE5       30.22F
HELENA         CLOUDY    31  28  89 CALM      30.18R
BOWMANS CRNR   CLOUDY    22  21  96 NE3       30.15R
CHOTEAU          N/A     19  19 100 E6        30.19F WCI  11
FAIRFIELD      CLOUDY    21  18  88 E7        30.18S WCI  13
POWER          CLOUDY    18  17  93 CALM      30.19S
RAYNESFORD     CLOUDY    21  21 100 CALM      30.18F
ULM            MOCLDY    22  20  96 NE5       30.20S
$$

MTZ011-013-016-021-045-047-050-051-211200-
NORTH CENTRAL MONTANA

CITY           SKY/WX    TMP DP  RH WIND       PRES   REMARKS
HAVRE          CLOUDY    16   7  67 NW6       30.28F WCI   7
LEWISTOWN      CLOUDY    21  21 100 W6        30.18F WCI  13
N BAR RANCH    CLOUDY    21  18  86 SE5       30.20F
CHINOOK          N/A     12   1  62 N3        30.30F
DENTON         MOCLDY    20  18  92 MISG      30.18F
GEYSER         MOCLDY    21  18  88 S6        30.18S WCI  13
GRASS RANGE    MOCLDY    24  22  92 S5        30.16F
STANFORD       MOCLDY    20  19  96 CALM      30.17S
WINIFRED       MOCLDY    20  20  98 W7        30.19F WCI  12
$$

MTZ017>020-022>027-061-062-211200-
NORTHEAST MONTANA

CITY           SKY/WX    TMP DP  RH WIND       PRES   REMARKS
GLASGOW        FAIR       4  -3  73 NW12      30.32R WCI -12
GLENDIVE       FAIR       6  -2  69 NW15      30.29  WCI -12
JORDAN           N/A     15   5  64 N7        30.29R WCI   5
SIDNEY         FAIR       5  -2  72 NW14      30.31R WCI -12
WOLF POINT     FAIR       4  -4  69 W7        30.35R WCI  -8
MALTA          CLEAR      9   3  78 N3        30.33F
PLENTYWOOD       N/A      0  -6  78 NW16      30.25R WCI -21
POPLAR           N/A      3  -6  66 W7        30.35R WCI  -9
SCOBEY           N/A     -1 -13  56 NW10      30.23R WCI -17
$$

MTZ028>42-056>058-211200-
SOUTHCENTRAL AND SOUTHEAST MONTANA

CITY           SKY/WX    TMP DP  RH WIND       PRES   REMARKS
BAKER          CLOUDY    12   3  67 NW18      30.22R WCI  -6
BILLINGS       CLOUDY    27  25  92 N3        30.24R
LIVINGSTON     CLOUDY    29  29 100 E9        30.16R WCI  20
MILES CITY     CLOUDY    19   9  65 N9        30.28R WCI   8
BIG TIMBER     CLOUDY    27  25  93 SE8       30.21S WCI  18
EKALAKA          N/A     15   4  61 NW12      30.13R WCI   2
FORSYTH          N/A     21  16  79 N6        30.27R WCI  14
HARLOWTON      CLOUDY    24  21  87 SE8       30.20S WCI  15
LAUREL           N/A     27  25  93 N5        30.25S
$$

REGIONAL REPORTS...DAKOTAS

CITY           SKY/WX    TMP DP  RH WIND       PRES   REMARKS
WILLISTON      FAIR       3  -2  79 W13       30.27R WCI -14
MINOT          FAIR       7   1  76 NW22G28   30.15R WCI -14
DICKINSON      FAIR       5   0  79 NW15      30.16R WCI -13
BEACH          FAIR       5  -2  72 NW18      30.24R WCI -15
CROSBY         CLOUDY     3  -2  78 NW17G23   30.25R WCI -17
TIOGA          CLOUDY     3   0  85 NW18      30.21R WCI -17
WATFORD CITY   FAIR       3  -2  78 NW14      30.25R WCI -15
BISMARCK       MOCLDY    17   6  62 NW22      30.16R WCI   0
GRAND FORKS    FLURRIES  16  10  77 NW26G38   29.97R WCI  -3
FARGO          CLOUDY    19  10  68 NW23G36   29.96R WCI   2
BUFFALO SD       N/A     18   6  59 NW20G25   30.10R WCI   2
RAPID CITY     CLOUDY    30  23  75 NW30G38   30.12R WCI  15
$$

REGIONAL REPORTS...WYOMING/IDAHO/WASHINGTON

CITY           SKY/WX    TMP DP  RH WIND       PRES   REMARKS
GILLETTE       CLOUDY    24  22  91 N8        30.17R WCI  15
SHERIDAN       CLOUDY    26  25  96 N3        30.21R
BUFFALO WY     CLOUDY    25  21  85 N9        30.17R WCI  15
CODY           MOCLDY    29  27  92 NE8       30.15R WCI  21
YELLOWSTONE LA   N/A     27  26  96 CALM      30.18R
IDAHO FALLS    CLOUDY    38  34  85 N3        30.19R
SALMON         FAIR      31  31 100 CALM      30.19S
BOISE          CLOUDY    46  42  86 SE6       30.17R
SPOKANE        FAIR      35  35 100 CALM      30.14S
$$

REGIONAL REPORTS...ALBERTA

CITY           SKY/WX    TMP DP  RH WIND       PRES   REMARKS
EDMONTON       CLOUDY    -2  -8  78 S3        30.24F
CALGARY        CLOUDY    10   3  72 S12       30.12S WCI  -4
LETHBRIDGE     PTCLDY    16  10  79 SE6       30.20F WCI   7
MEDICINE HAT   CLEAR      5  -2  72 SE3       30.30F
$$

REGIONAL REPORTS...SASKATCHEWAN

CITY           SKY/WX    TMP DP  RH WIND       PRES   REMARKS
SWIFT CURRENT  CLEAR     -6 -11  77 W14       30.23S WCI -26
REGINA         FLURRIES   3  -2  78 W16       30.26R WCI -16
SASKATOON      FLURRIES   1  -4  78 W10       30.30S WCI -14
$$




USA.gov is the U.S. government's official web portal to all federal, state and local government web resources and services.